Regional Weather Roundup
Issued by NWS

Home | Current Version | Previous Version | Graphics & Text | Print | Product List | Glossary On
Versions: 1 2 3 4 5 6 7 8 9 10 11 12 13 14 15 16 17 18 19 20 21 22 23 24 25 26 27 28 29 30 31 32 33 34 35 36 37 38 39 40 41 42 43 44 45 46 47 48 49 50
000
ASUS45 KABQ 010801
RWRNM
NEW MEXICO REGIONAL WEATHER ROUNDUP
NATIONAL WEATHER SERVICE ALBUQUERQUE NM
200 AM MDT TUE SEP 01 2015

NOTE: "FAIR" MEANS FEW OR NO CLOUDS BELOW 12,000 FEET AGL WITH NO
       SIGNIFICANT WEATHER OR OBSTRUCTIONS TO VISION.

      THIS PRODUCT IS RELEASED AS TWO VERSIONS.  ONE VERSION NEAR
      THE TOP OF THE HOUR CONTAINING PRELIMINARY DATA FROM ALBUQUERQUE
      AND OTHER STATIONS.  A FINAL VERSION WITH ADDITIONAL DATA IS
      ISSUED ABOUT 10 MINUTES AFTER THE HOUR.

NMZ501-503-504-510>518-010900-
NORTHWEST PLATEAU/NORTHCENTRAL MOUNTAINS

CITY           SKY/WX    TMP DP  RH WIND       PRES   REMARKS
FARMINGTON     CLEAR     65  47  52 NW5       30.17R
SANTA FE       MOCLDY    64  49  57 SW5       30.22S
TAOS           PTCLDY    54  37  54 CALM      30.30F
ANGEL FIRE     FAIR      46  46  98 CALM      30.38F

$$
NMZ402-403-502-505>509-010900-
WESTCENTRAL MOUNTAINS/SOUTHWEST MOUNTAINS

CITY           SKY/WX    TMP DP  RH WIND       PRES   REMARKS
GALLUP         CLOUDY    58  50  75 CALM      30.27S
SILVER CITY      N/A     66  50  55 NW14      30.20F

$$
NMZ407-409-411-412-010900-
SOUTHERN DESERTS

CITY           SKY/WX    TMP DP  RH WIND       PRES   REMARKS
DEMING         CLEAR     74  51  44 NW9       30.10F
HOLLOMAN AFB   PTCLDY    75  51  43 W5        30.03F
ALAMOGORDO     PTCLDY    73  48  40 NE6       30.06S
T OR C         PTCLDY    72  51  47 NW8       30.13S

$$
NMZ519>523-010900-
CENTRAL VALLEYS/CENTRAL HIGHLANDS

CITY           SKY/WX    TMP DP  RH WIND       PRES   REMARKS
ALBUQUERQUE    CLOUDY    72  48  42 S6        30.17F
DOUBLE EAGLE   CLOUDY    68  49  50 N5        30.20F
MORIARTY ARPT  FAIR      57  46  67 E5        30.23S
CLINES CORNERS PTCLDY    59  45  59 NW7       30.26F
BELEN          FAIR      69  46  44 W6        30.16F
SOCORRO        NOT AVBL

$$
NMZ524>526-539-540-010900-
SOUTHCENTRAL MOUNTAINS

CITY           SKY/WX    TMP DP  RH WIND       PRES   REMARKS
RUIDOSO        PTCLDY    63  46  55 MISG      30.28S

$$
NMZ527>531-010900-
NORTHEAST HIGHLANDS/NORTHEAST PLAINS

CITY           SKY/WX    TMP DP  RH WIND       PRES   REMARKS
LAS VEGAS      PTCLDY    59  47  64 NW5       30.24F
RATON          PTCLDY    58  50  75 N9        30.20F
CLAYTON        CLOUDY    67  57  70 CALM      30.12F

$$
NMZ532>537-010900-
EASTCENTRAL PLAINS

CITY           SKY/WX    TMP DP  RH WIND       PRES   REMARKS
TUCUMCARI      PTCLDY    71  49  45 W7        30.03F
CANNON AFB     PTCLDY    70  51  51 SE5       30.07F
CLOVIS AIRPORT PTCLDY    66  52  59 SW7       30.09F

$$
NMZ028-029-538-010900-
SOUTHEAST PLAINS

CITY           SKY/WX    TMP DP  RH WIND       PRES   REMARKS
ROSWELL        PTCLDY    68  51  54 SE5       30.03F
ARTESIA        CLEAR     73  50  43 CALM      30.03F
CARLSBAD       NOT AVBL


$$


USA.gov is the U.S. government's official web portal to all federal, state and local government web resources and services.